| time (UTC) | temp C | wind direction | speed KPH | gust KPH | rain 1hr cm | rain 24hr cm | rain mn cm | humidity % | barometer mb |
| 20260510224531 | 12 | 326 | 0.0 | 0.0 | 0.00 | 2.18 | 0.00 | 95 | 1013.2 |
| 20260510223103 | 13 | 326 | 0.0 | 0.0 | 0.00 | 2.18 | 0.00 | 95 | 1013.3 |
| 20260510221527 | 13 | 326 | 0.0 | 0.0 | 0.00 | 2.18 | 0.00 | 95 | 1013.2 |
| 20260510220030 | 13 | 326 | 0.0 | 0.0 | 0.00 | 2.18 | 2.18 | 95 | 1013.4 |
| 20260510214608 | 13 | 326 | 0.0 | 0.0 | 0.00 | 2.18 | 2.18 | 95 | 1013.5 |
| 20260510213057 | 13 | 326 | 0.0 | 0.0 | 0.00 | 2.18 | 2.18 | 95 | 1013.6 |
| 20260510211524 | 13 | 326 | 0.0 | 0.0 | 0.00 | 2.18 | 2.18 | 95 | 1013.8 |
| 20260510210019 | 13 | 326 | 0.0 | 0.0 | 0.00 | 2.18 | 2.18 | 94 | 1014.0 |
| 20260510204544 | 13 | 326 | 0.0 | 0.0 | 0.00 | 2.18 | 2.18 | 94 | 1014.0 |
| 20260510203100 | 13 | 326 | 0.0 | 0.0 | 0.00 | 2.18 | 2.18 | 94 | 1014.1 |
| 20260510201524 | 13 | 326 | 0.0 | 0.0 | 0.00 | 2.18 | 2.18 | 94 | 1014.2 |
| 20260510200005 | 13 | 326 | 0.0 | 0.0 | 0.00 | 2.18 | 2.18 | 94 | 1014.2 |
| 20260510194535 | 13 | 326 | 0.0 | 0.0 | 0.00 | 2.18 | 2.18 | 94 | 1014.2 |
| 20260510193108 | 13 | 327 | 0.0 | 0.0 | 0.00 | 2.18 | 2.18 | 94 | 1014.3 |
| 20260510191513 | 13 | 305 | 0.0 | 0.0 | 0.00 | 2.18 | 2.18 | 93 | 1014.3 |
| 20260510190030 | 13 | 305 | 0.0 | 0.0 | 0.00 | 2.18 | 2.18 | 93 | 1014.3 |
| 20260510184543 | 13 | 305 | 0.0 | 0.0 | 0.00 | 2.18 | 2.18 | 93 | 1014.0 |
| 20260510183009 | 13 | 305 | 0.0 | 0.0 | 0.00 | 2.18 | 2.18 | 93 | 1013.9 |
| 20260510181543 | 13 | 305 | 0.0 | 0.0 | 0.00 | 2.18 | 2.18 | 93 | 1013.9 |
| 20260510180105 | 14 | 305 | 0.0 | 0.0 | 0.00 | 2.18 | 2.18 | 93 | 1013.8 |
| 20260510174518 | 14 | 305 | 0.0 | 0.0 | 0.00 | 2.18 | 2.18 | 93 | 1013.9 |
| 20260510173048 | 14 | 305 | 0.0 | 0.0 | 0.00 | 2.18 | 2.18 | 92 | 1013.9 |
| 20260510171516 | 14 | 305 | 0.0 | 0.0 | 0.00 | 2.18 | 2.18 | 93 | 1013.9 |
| 20260510170031 | 14 | 305 | 0.0 | 0.0 | 0.00 | 2.18 | 2.18 | 93 | 1013.9 |
| 20260510164606 | 14 | 305 | 0.0 | 0.0 | 0.03 | 2.18 | 2.18 | 92 | 1013.8 |
| 20260510163025 | 14 | 305 | 0.0 | 0.0 | 0.03 | 2.18 | 2.18 | 92 | 1013.9 |
| 20260510161538 | 14 | 305 | 0.0 | 0.0 | 0.03 | 2.18 | 2.18 | 92 | 1014.1 |
| 20260510160055 | 14 | 305 | 0.0 | 0.0 | 0.03 | 2.18 | 2.18 | 93 | 1014.2 |
| 20260510154538 | 14 | 305 | 0.0 | 0.0 | 0.03 | 2.16 | 2.16 | 94 | 1014.4 |
| 20260510153034 | 14 | 305 | 0.0 | 0.0 | 0.03 | 2.16 | 2.16 | 93 | 1014.4 |
| 20260510151613 | 14 | 305 | 0.0 | 0.0 | 0.03 | 2.16 | 2.16 | 93 | 1014.5 |
| 20260510150110 | 14 | 305 | 0.0 | 0.0 | 0.00 | 2.13 | 2.13 | 93 | 1014.6 |
| 20260510144530 | 14 | 305 | 0.0 | 0.0 | 0.00 | 2.13 | 2.13 | 93 | 1014.7 |
| 20260510143053 | 14 | 302 | 0.0 | 0.0 | 0.00 | 2.13 | 2.13 | 93 | 1014.6 |
| 20260510141556 | 14 | 302 | 0.0 | 0.0 | 0.00 | 2.13 | 2.13 | 93 | 1014.6 |
| 20260510140057 | 14 | 302 | 0.0 | 0.0 | 0.00 | 2.13 | 2.13 | 94 | 1014.7 |
| 20260510134520 | 14 | 308 | 0.0 | 0.0 | 0.00 | 2.13 | 2.13 | 93 | 1014.9 |
| 20260510133030 | 14 | 296 | 0.0 | 1.6 | 0.00 | 2.13 | 2.13 | 94 | 1015.1 |
| 20260510131559 | 14 | 293 | 0.0 | 0.0 | 0.00 | 2.13 | 2.13 | 94 | 1015.1 |
| 20260510130013 | 14 | 8 | 0.0 | 3.2 | 0.03 | 2.13 | 2.13 | 94 | 1015.3 |
| 20260510124527 | 14 | 302 | 0.0 | 0.0 | 0.05 | 2.13 | 2.13 | 94 | 1015.5 |
| 20260510123057 | 14 | 308 | 0.0 | 6.4 | 0.05 | 2.13 | 2.13 | 94 | 1015.6 |
| 20260510121518 | 14 | 306 | 0.0 | 4.8 | 0.05 | 2.13 | 2.13 | 94 | 1015.7 |
| 20260510120100 | 14 | 31 | 0.0 | 1.6 | 0.03 | 2.11 | 2.11 | 94 | 1015.7 |
| 20260510114528 | 14 | 3 | 0.0 | 1.6 | 0.00 | 2.08 | 2.08 | 94 | 1015.8 |
| 20260510113115 | 14 | 307 | 0.0 | 3.2 | 0.03 | 2.08 | 2.08 | 94 | 1015.8 |
| 20260510111526 | 14 | 302 | 0.0 | 0.0 | 0.05 | 2.08 | 2.08 | 94 | 1016.0 |
| 20260510110002 | 13 | 298 | 0.0 | 0.0 | 0.08 | 2.08 | 2.08 | 94 | 1016.2 |
| 20260510104606 | 13 | 298 | 0.0 | 1.6 | 0.10 | 2.08 | 2.08 | 94 | 1016.3 |
| 20260510103029 | 13 | 303 | 0.0 | 0.0 | 0.10 | 2.06 | 2.06 | 94 | 1016.5 |
| 20260510101559 | 13 | 288 | 0.0 | 0.0 | 0.15 | 2.03 | 2.03 | 94 | 1016.5 |
| 20260510100009 | 13 | 285 | 0.0 | 0.0 | 0.23 | 2.01 | 2.01 | 94 | 1016.4 |
| 20260510094539 | 13 | 285 | 0.0 | 0.0 | 0.30 | 1.98 | 1.98 | 94 | 1016.5 |
| 20260510093006 | 13 | 285 | 0.0 | 0.0 | 0.36 | 1.96 | 1.96 | 93 | 1016.6 |
| 20260510091537 | 13 | 285 | 0.0 | 0.0 | 0.36 | 1.88 | 1.88 | 93 | 1016.6 |
| 20260510090034 | 13 | 285 | 0.0 | 0.0 | 0.30 | 1.78 | 1.78 | 93 | 1016.5 |
| 20260510084540 | 13 | 285 | 0.0 | 0.0 | 0.20 | 1.65 | 1.65 | 93 | 1016.6 |
| 20260510083104 | 13 | 284 | 0.0 | 0.0 | 0.18 | 1.60 | 1.60 | 92 | 1016.5 |
| 20260510081527 | 13 | 284 | 0.0 | 0.0 | 0.13 | 1.52 | 1.52 | 92 | 1016.4 |
| 20260510080006 | 13 | 285 | 0.0 | 0.0 | 0.08 | 1.45 | 1.45 | 91 | 1016.3 |
| 20260510074514 | 13 | 13 | 0.0 | 3.2 | 0.05 | 1.42 | 1.42 | 91 | 1016.3 |
| 20260510073056 | 13 | 53 | 0.0 | 3.2 | 0.05 | 1.42 | 1.42 | 91 | 1016.1 |
| 20260510071505 | 13 | 42 | 0.0 | 6.4 | 0.05 | 1.40 | 1.40 | 92 | 1016.2 |
| 20260510070019 | 13 | 8 | 0.0 | 1.6 | 0.13 | 1.40 | 1.40 | 92 | 1016.1 |
| 20260510064532 | 13 | 357 | 0.0 | 1.6 | 0.23 | 1.40 | 1.40 | 92 | 1016.1 |
| 20260510063027 | 13 | 287 | 0.0 | 14.5 | 0.43 | 1.37 | 1.37 | 92 | 1015.9 |
| 20260510061547 | 13 | 8 | 0.0 | 6.4 | 0.71 | 1.35 | 1.35 | 92 | 1015.9 |
| 20260510060043 | 13 | 3 | 0.0 | 0.0 | 1.14 | 1.27 | 1.27 | 92 | 1016.1 |
| 20260510054506 | 13 | 310 | 0.0 | 0.0 | 1.07 | 1.17 | 1.14 | 91 | 1016.1 |
| 20260510053042 | 13 | 316 | 0.0 | 4.8 | 0.81 | 0.91 | 0.91 | 91 | 1015.6 |
| 20260510051550 | 13 | 321 | 0.0 | 0.0 | 0.51 | 0.61 | 0.61 | 90 | 1015.3 |
| 20260510050032 | 13 | 300 | 0.0 | 0.0 | 0.08 | 0.13 | 0.13 | 89 | 1015.1 |
| 20260510044610 | 13 | 13 | 0.0 | 1.6 | 0.10 | 0.10 | 0.10 | 89 | 1014.7 |
| 20260510043006 | 13 | 334 | 0.0 | 0.0 | 0.10 | 0.10 | 0.10 | 88 | 1014.9 |
| 20260510041534 | 13 | 318 | 0.0 | 1.6 | 0.10 | 0.10 | 0.10 | 87 | 1014.8 |
| 20260510040048 | 14 | 300 | 0.0 | 1.6 | 0.05 | 0.05 | 0.05 | 85 | 1015.1 |
| 20260510034509 | 14 | 300 | 0.0 | 1.6 | 0.00 | 0.00 | 0.00 | 84 | 1015.1 |
| 20260510033020 | 14 | 113 | 0.0 | 0.0 | 0.00 | 0.00 | 0.00 | 83 | 1015.2 |
| 20260510031531 | 14 | 113 | 0.0 | 0.0 | 0.00 | 0.00 | 0.00 | 83 | 1015.3 |
| 20260510030008 | 15 | 113 | 0.0 | 0.0 | 0.00 | 0.00 | 0.00 | 81 | 1015.5 |
| 20260510024521 | 15 | 310 | 0.0 | 0.0 | 0.00 | 0.00 | 0.00 | 80 | 1015.5 |
| 20260510023034 | 14 | 13 | 0.0 | 1.6 | 0.00 | 0.00 | 0.00 | 81 | 1015.8 |
| 20260510021555 | 14 | 237 | 0.0 | 0.0 | 0.00 | 0.00 | 0.00 | 81 | 1016.0 |
| 20260510020101 | 15 | 102 | 0.0 | 0.0 | 0.00 | 0.00 | 0.00 | 80 | 1016.1 |
| 20260510014523 | 15 | 102 | 0.0 | 0.0 | 0.00 | 0.00 | 0.00 | 78 | 1016.1 |
| 20260510013036 | 15 | 298 | 0.0 | 0.0 | 0.00 | 0.00 | 0.00 | 79 | 1016.3 |
| 20260510011603 | 15 | 298 | 0.0 | 1.6 | 0.00 | 0.00 | 0.00 | 79 | 1015.9 |
| 20260510010014 | 14 | 354 | 0.0 | 1.6 | 0.00 | 0.00 | 0.00 | 80 | 1016.0 |
| 20260510004528 | 14 | 3 | 0.0 | 0.0 | 0.00 | 0.00 | 0.00 | 79 | 1016.0 |
| 20260510003043 | 14 | 3 | 0.0 | 0.0 | 0.00 | 0.00 | 0.00 | 79 | 1016.3 |
| 20260510001601 | 13 | 3 | 0.0 | 8.0 | 0.00 | 0.00 | 0.00 | 82 | 1016.6 |
| 20260510000126 | 12 | 322 | 0.0 | 0.0 | 0.00 | 0.00 | 0.00 | 84 | 1016.6 |
| 20260509234557 | 12 | 324 | 0.0 | 0.0 | 0.00 | 0.00 | 0.00 | 84 | 1016.6 |
| 20260509233009 | 12 | 324 | 0.0 | 0.0 | 0.00 | 0.00 | 0.00 | 84 | 1016.8 |
| 20260509231535 | 12 | 321 | 0.0 | 0.0 | 0.00 | 0.00 | 0.00 | 85 | 1016.8 |
| 20260509230105 | 12 | 321 | 0.0 | 0.0 | 0.00 | 0.00 | 0.00 | 85 | 1016.8 |